{"data":{"norad_id":57634,"epoch":"2026-09-19T18:58:36.220800Z","epoch_age_seconds":188927,"freshness":"STALE","line1":"1 57634U 23122C   26262.79069700 -.00000135  00000+0  46326-5 0  9996","line2":"2 57634  43.0025  65.1696 0001303 277.4512  82.6191 15.27577040172026","mean_motion":15.2757704,"eccentricity":0.0001303,"inclination_deg":43.0025,"raan_deg":65.1696,"arg_perigee_deg":277.4512,"mean_anomaly_deg":82.6191,"bstar":4.6326e-6,"rev_number":17202,"period_min":94.266931375193,"perigee_km":482.16394565561,"apogee_km":483.95197306202,"semimajor_km":6861.1949593588,"source":"CELESTRAK","updated_at":"2026-09-21T09:00:33.665212Z"}}